NKS3120 KFLL-KJAX

Flight info

Callsign NKS3120
Flight time 0h 48m
Altitude 30000
Route FRSBE2 STYMY ORL/N0450F310 HAINY QUBEN2
Aircraft A20N/M-SDE2E3FGHIRWXY/LB1

Departure

Time 2026-05-03 21:29
Airport Fort Lauderdale Hollywood International Airport (KFLL)

Arrival

Time 2026-05-03 22:17
Airport Jacksonville International Airport (KJAX)
Time Latitude Longitude Altitude Speed Heading
2026-05-03 20:38 26.06934 -80.14597 22 ft 0 kts 91°
2026-05-03 20:40 26.06934 -80.14600 22 ft 0 kts 91°
2026-05-03 20:49 26.06934 -80.14604 22 ft 1 kts 91°
2026-05-03 20:50 26.06934 -80.14622 24 ft 3 kts 91°
2026-05-03 20:50 26.06935 -80.14655 25 ft 5 kts 91°
2026-05-03 20:50 26.06936 -80.14706 25 ft 7 kts 91°
2026-05-03 20:50 26.06936 -80.14715 25 ft 0 kts 91°
2026-05-03 20:51 26.06928 -80.14706 25 ft 0 kts 139°
2026-05-03 20:52 26.06927 -80.14705 25 ft 0 kts 139°
2026-05-03 20:55 26.06924 -80.14702 22 ft 1 kts 139°
2026-05-03 20:55 26.06902 -80.14680 23 ft 8 kts 137°
2026-05-03 20:56 26.06851 -80.14628 22 ft 12 kts 136°
2026-05-03 20:56 26.06814 -80.14591 19 ft 8 kts 149°
2026-05-03 20:56 26.06767 -80.14615 19 ft 9 kts 256°
2026-05-03 20:56 26.06766 -80.14685 20 ft 10 kts 270°
2026-05-03 20:57 26.06767 -80.14757 22 ft 9 kts 271°
2026-05-03 20:57 26.06768 -80.14828 24 ft 9 kts 270°
2026-05-03 20:57 26.06768 -80.14906 25 ft 11 kts 270°
2026-05-03 20:57 26.06767 -80.14999 25 ft 13 kts 269°
2026-05-03 20:58 26.06765 -80.15098 26 ft 9 kts 253°
2026-05-03 20:58 26.06720 -80.15135 27 ft 8 kts 211°
2026-05-03 20:58 26.06696 -80.15193 28 ft 9 kts 268°
2026-05-03 20:58 26.06696 -80.15266 29 ft 10 kts 269°
2026-05-03 20:59 26.06696 -80.15349 30 ft 12 kts 271°
2026-05-03 20:59 26.06697 -80.15451 29 ft 15 kts 270°
2026-05-03 20:59 26.06697 -80.15479 28 ft 2 kts 270°
2026-05-03 20:59 26.06698 -80.15489 28 ft 0 kts 270°
2026-05-03 21:02 26.06698 -80.15490 28 ft 1 kts 270°
2026-05-03 21:02 26.06698 -80.15494 28 ft 0 kts 270°
2026-05-03 21:04 26.06698 -80.15496 28 ft 2 kts 270°
2026-05-03 21:04 26.06698 -80.15522 28 ft 5 kts 270°
2026-05-03 21:04 26.06698 -80.15562 27 ft 0 kts 270°
2026-05-03 21:04 26.06698 -80.15568 27 ft 0 kts 270°
2026-05-03 21:05 26.06698 -80.15572 27 ft 0 kts 270°
2026-05-03 21:07 26.06698 -80.15589 27 ft 4 kts 270°
2026-05-03 21:07 26.06698 -80.15599 27 ft 0 kts 270°
2026-05-03 21:08 26.06698 -80.15604 27 ft 2 kts 270°
2026-05-03 21:08 26.06698 -80.15607 27 ft 0 kts 270°
2026-05-03 21:08 26.06698 -80.15616 27 ft 3 kts 270°
2026-05-03 21:09 26.06697 -80.15648 27 ft 6 kts 269°
2026-05-03 21:09 26.06697 -80.15678 26 ft 0 kts 269°
2026-05-03 21:10 26.06698 -80.15691 26 ft 3 kts 273°
2026-05-03 21:11 26.06698 -80.15718 30 ft 0 kts 271°
2026-05-03 21:11 26.06699 -80.15725 30 ft 0 kts 271°
2026-05-03 21:18 26.06699 -80.15739 30 ft 3 kts 271°
2026-05-03 21:18 26.06699 -80.15762 30 ft 0 kts 269°
2026-05-03 21:19 26.06699 -80.15771 30 ft 0 kts 269°
2026-05-03 21:22 26.06698 -80.15777 27 ft 2 kts 269°
2026-05-03 21:22 26.06690 -80.15802 27 ft 5 kts 230°
2026-05-03 21:23 26.06682 -80.15809 28 ft 0 kts 219°
2026-05-03 21:27 26.06643 -80.15823 26 ft 15 kts 187°
2026-05-03 21:28 26.06588 -80.15751 25 ft 14 kts 84°
2026-05-03 21:28 26.06588 -80.15728 25 ft 0 kts 90°
2026-05-03 21:29 26.06586 -80.15601 29 ft 56 kts 90°
2026-05-03 21:29 26.06585 -80.14786 22 ft 155 kts 89°
2026-05-03 21:29 26.06559 -80.13416 504 ft 194 kts 89°
2026-05-03 21:29 26.06641 -80.11829 1151 ft 214 kts 79°
2026-05-03 21:30 26.07109 -80.10199 1851 ft 235 kts 63°
2026-05-03 21:30 26.07981 -80.08564 2329 ft 252 kts 52°
2026-05-03 21:30 26.09224 -80.07198 2821 ft 253 kts 32°
2026-05-03 21:30 26.10805 -80.06341 3314 ft 255 kts 19°
2026-05-03 21:31 26.12477 -80.05663 3771 ft 258 kts 17°
2026-05-03 21:31 26.14193 -80.05049 3976 ft 259 kts 11°
2026-05-03 21:31 26.15974 -80.04912 3996 ft 256 kts 350°
2026-05-03 21:31 26.17696 -80.05382 4001 ft 255 kts 339°
2026-05-03 21:32 26.19372 -80.06025 4000 ft 255 kts 338°
2026-05-03 21:32 26.21025 -80.06734 4000 ft 254 kts 331°
2026-05-03 21:32 26.22413 -80.07905 3998 ft 250 kts 308°
2026-05-03 21:32 26.23268 -80.09574 4004 ft 250 kts 293°
2026-05-03 21:33 26.23931 -80.11388 4002 ft 255 kts 291°
2026-05-03 21:33 26.24569 -80.13239 4144 ft 258 kts 290°
2026-05-03 21:33 26.25229 -80.15111 4647 ft 261 kts 292°
2026-05-03 21:33 26.26076 -80.16912 5254 ft 263 kts 299°
2026-05-03 21:34 26.27039 -80.18657 5867 ft 265 kts 300°
2026-05-03 21:34 26.28029 -80.20396 6484 ft 266 kts 300°
2026-05-03 21:34 26.29026 -80.22141 7070 ft 268 kts 300°
2026-05-03 21:34 26.30029 -80.23895 7664 ft 269 kts 300°
2026-05-03 21:35 26.31033 -80.25659 8277 ft 271 kts 300°
2026-05-03 21:35 26.32043 -80.27435 8904 ft 272 kts 299°
2026-05-03 21:35 26.33059 -80.29210 9547 ft 272 kts 299°
2026-05-03 21:35 26.34080 -80.31007 10165 ft 282 kts 299°
2026-05-03 21:36 26.35177 -80.32943 10754 ft 307 kts 299°
2026-05-03 21:36 26.36350 -80.35012 11356 ft 321 kts 299°
2026-05-03 21:36 26.37555 -80.37132 11967 ft 326 kts 299°
2026-05-03 21:36 26.38772 -80.39278 12575 ft 329 kts 299°
2026-05-03 21:37 26.39996 -80.41440 12927 ft 331 kts 298°
2026-05-03 21:37 26.41225 -80.43616 13006 ft 332 kts 298°
2026-05-03 21:37 26.42457 -80.45800 13008 ft 334 kts 298°
2026-05-03 21:37 26.43695 -80.47997 13005 ft 334 kts 298°
2026-05-03 21:38 26.44932 -80.50192 13006 ft 334 kts 298°
2026-05-03 21:38 26.46169 -80.52388 13006 ft 334 kts 298°
2026-05-03 21:38 26.47473 -80.54548 13022 ft 338 kts 304°
2026-05-03 21:38 26.49182 -80.56320 12998 ft 345 kts 322°
2026-05-03 21:39 26.51425 -80.57442 13006 ft 352 kts 336°
2026-05-03 21:39 26.53747 -80.58212 13006 ft 354 kts 339°
2026-05-03 21:39 26.56120 -80.58940 13026 ft 354 kts 339°
2026-05-03 21:39 26.58523 -80.59680 13270 ft 366 kts 339°
2026-05-03 21:40 26.61017 -80.60460 13780 ft 377 kts 339°
2026-05-03 21:40 26.63554 -80.61257 14242 ft 381 kts 339°
2026-05-03 21:40 26.66119 -80.62066 14719 ft 384 kts 339°
2026-05-03 21:40 26.68696 -80.62882 15191 ft 387 kts 339°
2026-05-03 21:41 26.71299 -80.63709 15665 ft 391 kts 338°
2026-05-03 21:41 26.73920 -80.64547 16143 ft 393 kts 338°
2026-05-03 21:41 26.76570 -80.65390 16636 ft 401 kts 338°
2026-05-03 21:41 26.79289 -80.66257 17143 ft 411 kts 338°
2026-05-03 21:42 26.82070 -80.67144 17663 ft 420 kts 338°
2026-05-03 21:42 26.84902 -80.68046 18183 ft 426 kts 338°
2026-05-03 21:42 26.87770 -80.68960 18674 ft 431 kts 338°
2026-05-03 21:42 26.90668 -80.69889 19127 ft 435 kts 337°
2026-05-03 21:43 26.93554 -80.70926 19588 ft 437 kts 335°
2026-05-03 21:43 26.96450 -80.72018 20060 ft 440 kts 334°
2026-05-03 21:43 26.99362 -80.73125 20539 ft 444 kts 334°
2026-05-03 21:43 27.02301 -80.74242 21021 ft 448 kts 334°
2026-05-03 21:44 27.05262 -80.75365 21516 ft 452 kts 334°
2026-05-03 21:44 27.08254 -80.76500 22016 ft 455 kts 334°
2026-05-03 21:44 27.11265 -80.77641 22527 ft 459 kts 334°
2026-05-03 21:44 27.14304 -80.78794 23045 ft 463 kts 334°
2026-05-03 21:45 27.17364 -80.79954 23588 ft 466 kts 333°
2026-05-03 21:45 27.20447 -80.81124 24035 ft 470 kts 333°
2026-05-03 21:45 27.23553 -80.82304 24481 ft 474 kts 333°
2026-05-03 21:45 27.26686 -80.83494 24936 ft 477 kts 333°
2026-05-03 21:46 27.29847 -80.84696 25400 ft 481 kts 333°
2026-05-03 21:46 27.32975 -80.85908 25870 ft 483 kts 332°
2026-05-03 21:46 27.36136 -80.87193 26333 ft 485 kts 332°
2026-05-03 21:46 27.39311 -80.88500 26830 ft 487 kts 332°
2026-05-03 21:47 27.42500 -80.89814 27335 ft 489 kts 332°
2026-05-03 21:47 27.45695 -80.91131 27845 ft 490 kts 332°
2026-05-03 21:47 27.48899 -80.92451 28354 ft 491 kts 332°
2026-05-03 21:47 27.52103 -80.93770 28857 ft 489 kts 332°
2026-05-03 21:48 27.55295 -80.95084 29036 ft 487 kts 332°
2026-05-03 21:48 27.58475 -80.96396 29041 ft 488 kts 332°
2026-05-03 21:48 27.64858 -80.99033 29033 ft 489 kts 332°
2026-05-03 21:49 27.71243 -81.01672 29034 ft 489 kts 332°
2026-05-03 21:49 27.77632 -81.04316 29058 ft 489 kts 332°
2026-05-03 21:50 27.84024 -81.06965 29059 ft 490 kts 332°
2026-05-03 21:50 27.90424 -81.09620 29073 ft 490 kts 332°
2026-05-03 21:51 27.96823 -81.12278 29075 ft 490 kts 332°
2026-05-03 21:51 28.03224 -81.14937 29071 ft 491 kts 332°
2026-05-03 21:52 28.09725 -81.17395 29095 ft 493 kts 334°
2026-05-03 21:52 28.16289 -81.19724 29083 ft 495 kts 334°
2026-05-03 21:53 28.22838 -81.22050 29084 ft 490 kts 334°
2026-05-03 21:53 28.29327 -81.24386 29076 ft 489 kts 334°
2026-05-03 21:54 28.35807 -81.26740 29073 ft 489 kts 334°
2026-05-03 21:54 28.42281 -81.29096 29076 ft 488 kts 334°
2026-05-03 21:55 28.48740 -81.31447 29073 ft 487 kts 334°
2026-05-03 21:55 28.55315 -81.33443 29084 ft 502 kts 346°
2026-05-03 21:56 28.62295 -81.34030 29082 ft 504 kts 349°
2026-05-03 21:56 28.69305 -81.34481 29116 ft 504 kts 349°
2026-05-03 21:57 28.76310 -81.34936 29082 ft 504 kts 349°
2026-05-03 21:57 28.83256 -81.35392 29092 ft 503 kts 349°
2026-05-03 21:58 28.90250 -81.35854 29099 ft 503 kts 349°
2026-05-03 21:58 28.97243 -81.36317 29146 ft 503 kts 348°
2026-05-03 21:59 29.04233 -81.36789 29099 ft 503 kts 348°
2026-05-03 21:59 29.11213 -81.37265 29067 ft 503 kts 348°
2026-05-03 22:00 29.14697 -81.37502 28764 ft 500 kts 348°
2026-05-03 22:00 29.18166 -81.37738 28369 ft 499 kts 348°
2026-05-03 22:00 29.21626 -81.37974 27979 ft 496 kts 348°
2026-05-03 22:00 29.25061 -81.38208 27595 ft 493 kts 348°
2026-05-03 22:01 29.28475 -81.38439 27267 ft 490 kts 348°
2026-05-03 22:01 29.31868 -81.38667 26901 ft 486 kts 348°
2026-05-03 22:01 29.35234 -81.38893 26530 ft 483 kts 348°
2026-05-03 22:01 29.38581 -81.39118 26164 ft 480 kts 348°
2026-05-03 22:02 29.41914 -81.39343 25808 ft 480 kts 349°
2026-05-03 22:02 29.45248 -81.39569 25451 ft 479 kts 349°
2026-05-03 22:02 29.48555 -81.39790 25104 ft 473 kts 349°
2026-05-03 22:02 29.51817 -81.40009 24762 ft 468 kts 349°
2026-05-03 22:03 29.55068 -81.40191 24403 ft 464 kts 348°
2026-05-03 22:03 29.58150 -81.40939 23951 ft 443 kts 331°
2026-05-03 22:03 29.60776 -81.42608 23475 ft 423 kts 315°
2026-05-03 22:03 29.62744 -81.44990 22939 ft 403 kts 298°
2026-05-03 22:04 29.64164 -81.47691 22408 ft 389 kts 295°
2026-05-03 22:04 29.65608 -81.50295 21783 ft 384 kts 298°
2026-05-03 22:04 29.67193 -81.52744 21071 ft 380 kts 302°
2026-05-03 22:04 29.68872 -81.55043 20236 ft 371 kts 305°
2026-05-03 22:05 29.70590 -81.57216 19408 ft 363 kts 307°
2026-05-03 22:05 29.72305 -81.59298 18606 ft 355 kts 307°
2026-05-03 22:05 29.74006 -81.61321 17722 ft 348 kts 308°
2026-05-03 22:05 29.75689 -81.63294 16796 ft 343 kts 309°
2026-05-03 22:06 29.77660 -81.64876 15819 ft 354 kts 330°
2026-05-03 22:06 29.80064 -81.65482 14879 ft 364 kts 348°
2026-05-03 22:06 29.82574 -81.65716 13948 ft 359 kts 347°
2026-05-03 22:06 29.85024 -81.66117 12931 ft 353 kts 344°
2026-05-03 22:07 29.87415 -81.66652 11936 ft 347 kts 343°
2026-05-03 22:07 29.89762 -81.67229 10974 ft 342 kts 343°
2026-05-03 22:07 29.92053 -81.67819 10280 ft 330 kts 343°
2026-05-03 22:07 29.94231 -81.68393 9775 ft 313 kts 343°
2026-05-03 22:08 29.96300 -81.68944 9241 ft 297 kts 343°
2026-05-03 22:08 29.98269 -81.69474 8739 ft 285 kts 343°
2026-05-03 22:08 30.00166 -81.69994 8236 ft 276 kts 343°
2026-05-03 22:08 30.02015 -81.70511 7738 ft 271 kts 343°
2026-05-03 22:09 30.03224 -81.70854 7417 ft 270 kts 343°
2026-05-03 22:09 30.05038 -81.71374 6946 ft 267 kts 343°
2026-05-03 22:09 30.06871 -81.71743 6459 ft 267 kts 352°
2026-05-03 22:10 30.10559 -81.71776 5434 ft 263 kts
2026-05-03 22:10 30.12383 -81.71718 4949 ft 262 kts
2026-05-03 22:10 30.14209 -81.71646 4439 ft 263 kts
2026-05-03 22:10 30.16037 -81.71582 3931 ft 263 kts
2026-05-03 22:11 30.17855 -81.71816 3433 ft 264 kts 353°
2026-05-03 22:11 30.19662 -81.72202 2932 ft 264 kts 349°
2026-05-03 22:11 30.21454 -81.72666 2424 ft 264 kts 349°
2026-05-03 22:11 30.23230 -81.73175 2077 ft 261 kts 347°
2026-05-03 22:12 30.24957 -81.73695 2011 ft 252 kts 348°
2026-05-03 22:12 30.26638 -81.74205 2005 ft 249 kts 348°
2026-05-03 22:12 30.28314 -81.74712 2006 ft 249 kts 348°
2026-05-03 22:12 30.29988 -81.75214 2016 ft 248 kts 347°
2026-05-03 22:13 30.31654 -81.75714 2013 ft 247 kts 347°
2026-05-03 22:13 30.33316 -81.76206 2010 ft 247 kts 347°
2026-05-03 22:13 30.34984 -81.76698 2007 ft 247 kts 347°
2026-05-03 22:13 30.36645 -81.77191 1994 ft 247 kts 348°
2026-05-03 22:14 30.38314 -81.77687 1996 ft 248 kts 347°
2026-05-03 22:14 30.39989 -81.78156 1993 ft 248 kts 348°
2026-05-03 22:14 30.41660 -81.78637 1989 ft 247 kts 347°
2026-05-03 22:14 30.43329 -81.79131 1995 ft 248 kts 349°
2026-05-03 22:15 30.44985 -81.79315 1993 ft 231 kts
2026-05-03 22:15 30.46473 -81.78902 1982 ft 212 kts 27°
2026-05-03 22:15 30.47624 -81.77900 1975 ft 205 kts 57°
2026-05-03 22:15 30.48178 -81.76478 2020 ft 183 kts 72°
2026-05-03 22:16 30.48484 -81.75180 2011 ft 155 kts 79°
2026-05-03 22:16 30.48648 -81.73998 1702 ft 145 kts 80°
2026-05-03 22:16 30.48824 -81.72853 1263 ft 145 kts 77°
2026-05-03 22:16 30.49108 -81.71719 769 ft 147 kts 71°
2026-05-03 22:17 30.49439 -81.70613 354 ft 144 kts 72°
2026-05-03 22:17 30.49764 -81.69542 65 ft 134 kts 73°
2026-05-03 22:17 30.50029 -81.68672 38 ft 73 kts 70°
2026-05-03 22:17 30.50130 -81.68336 42 ft 36 kts 75°
2026-05-03 22:18 30.50154 -81.68081 40 ft 25 kts 107°
2026-05-03 22:18 30.50133 -81.68036 42 ft 1 kts 128°
2026-05-03 22:18 30.50124 -81.68024 42 ft 0 kts 132°
2026-05-03 22:19 30.50122 -81.68022 42 ft 1 kts 132°
2026-05-03 22:19 30.50066 -81.68011 42 ft 11 kts 212°
2026-05-03 22:20 30.50031 -81.68090 42 ft 12 kts 250°
2026-05-03 22:20 30.50001 -81.68185 42 ft 14 kts 251°
2026-05-03 22:20 30.49966 -81.68303 39 ft 18 kts 251°
2026-05-03 22:20 30.49918 -81.68426 38 ft 14 kts 223°
2026-05-03 22:21 30.49821 -81.68458 39 ft 15 kts 192°
2026-05-03 22:21 30.49707 -81.68487 39 ft 18 kts 190°
2026-05-03 22:21 30.49577 -81.68512 41 ft 19 kts 189°
2026-05-03 22:21 30.49465 -81.68532 42 ft 6 kts 187°
2026-05-03 22:22 30.49444 -81.68537 42 ft 7 kts 198°
2026-05-03 22:22 30.49408 -81.68552 42 ft 5 kts 200°
2026-05-03 22:22 30.49397 -81.68557 42 ft 0 kts 200°